Change the Weather History Date:

Saturday, June 8, 2013

  Actual Average Record
Temperature  
Mean Temperature 72 °F -  
Max Temperature 87 °F 76 °F 91 °F (1955)
Min Temperature 59 °F 53 °F 39 °F (1997)
Cooling Degree Days 8    
Growing Degree Days 22 (Base 50)    
Moisture  
Dew Point 40 °F    
Average Humidity 37    
Maximum Humidity 67    
Minimum Humidity 13    
Precipitation  
Precipitation 0.00 in - - ()
Sea Level Pressure  
Sea Level Pressure 29.99 in    
Wind  
Wind Speed 8 mph (SSW)    
Max Wind Speed 14 mph    
Max Gust Speed 16 mph    
Visibility 10 miles    
Events      
Averages and records for this station are not official NWS values.
T = Trace of Precipitation, MM = Missing Value Source: NWS Daily Summary

Daily Weather History Graph

Daily Weather History Graph

Search for Another Location

Airport or City:

Trip Planner

Search our weather history database for the weather conditions in past years. The results will help you decide how hot, cold, wet, or windy it might be!

Date:

Astronomy

Jun. 08, 2013 Rise Set
Actual Time 5:02 AM PDT 8:42 PM PDT
Civil Twilight 4:24 AM PDT 9:20 PM PDT
Nautical Twilight 3:33 AM PDT 10:12 PM PDT
Astronomical Twilight 2:23 AM PDT 11:22 PM PDT
Moon 5:17 AM PDT (6/8) 8:45 PM PDT (6/8)
Length of Visible Light 16h 56m
Length of Day
15h 40m
New Moon, 0% of the Moon is Illuminated
Jun 8
New Moon
Jun 16
First Quarter
Jun 23
Full
Jun 29
Last Quarter
Jul 8
New

Hourly Weather History & Observations

Time (PDT) Temp. Dew Point Humidity Pressure Visibility Wind Dir Wind Speed Gust Speed Precip Events Conditions
12:53 AM 63.0 °F 46.9 °F 56% 30.02 in 10.0 mi SSE 9.2 mph - N/A   Clear
1:53 AM 61.0 °F 46.9 °F 60% 30.03 in 10.0 mi South 9.2 mph - N/A   Clear
2:53 AM 60.1 °F 46.9 °F 62% 30.03 in 10.0 mi South 8.1 mph - N/A   Clear
3:53 AM 59.0 °F 46.9 °F 64% 30.03 in 10.0 mi South 9.2 mph - N/A   Clear
4:53 AM 59.0 °F 46.9 °F 64% 30.04 in 10.0 mi South 9.2 mph - N/A   Clear
5:53 AM 59.0 °F 48.0 °F 67% 30.04 in 10.0 mi South 8.1 mph - N/A   Clear
6:53 AM 63.0 °F 46.0 °F 54% 30.05 in 10.0 mi South 9.2 mph - N/A   Clear
7:53 AM 66.0 °F 43.0 °F 43% 30.06 in 10.0 mi SSW 9.2 mph - N/A   Clear
8:53 AM 66.9 °F 43.0 °F 42% 30.06 in 10.0 mi SSW 5.8 mph - N/A   Clear
9:53 AM 69.1 °F 43.0 °F 39% 30.06 in 10.0 mi SSW 8.1 mph - N/A   Clear
10:53 AM 72.0 °F 39.9 °F 31% 30.04 in 10.0 mi Variable 5.8 mph - N/A   Clear
11:53 AM 75.9 °F 37.9 °F 25% 30.03 in 10.0 mi West 6.9 mph - N/A   Clear
12:53 PM 79.0 °F 35.1 °F 20% 30.01 in 10.0 mi WSW 8.1 mph - N/A   Clear
1:53 PM 81.0 °F 30.0 °F 16% 30.00 in 10.0 mi SW 5.8 mph - N/A   Clear
2:53 PM 84.0 °F 34.0 °F 17% 29.97 in 10.0 mi SSW 6.9 mph - N/A   Clear
3:53 PM 84.0 °F 33.1 °F 16% 29.95 in 10.0 mi Variable 6.9 mph 16.1 mph N/A   Clear
4:53 PM 86.0 °F 33.1 °F 15% 29.94 in 10.0 mi West 11.5 mph - N/A   Clear
5:53 PM 86.0 °F 30.0 °F 13% 29.92 in 10.0 mi West 10.4 mph - N/A   Clear
6:53 PM 84.9 °F 30.9 °F 14% 29.91 in 10.0 mi WSW 9.2 mph - N/A   Clear
7:53 PM 82.9 °F 33.1 °F 17% 29.91 in 10.0 mi West 3.5 mph - N/A   Clear
8:53 PM 77.0 °F 45.0 °F 32% 29.90 in 10.0 mi SE 5.8 mph - N/A   Clear
9:53 PM 75.0 °F 41.0 °F 29% 29.91 in 10.0 mi South 10.4 mph - N/A   Clear
10:53 PM 71.1 °F 45.0 °F 39% 29.93 in 10.0 mi South 13.8 mph - N/A   Clear
11:53 PM 66.9 °F 46.0 °F 47% 29.95 in 10.0 mi South 8.1 mph - N/A   Clear